Flag for Germany Weather past 2 weeks in Troisdorf, North Rhine-Westphalia, Germany

Now
55 °F

Sunny.


Feels Like: 55 °F
Forecast: 47 / 68 °F
Wind: 2 mph from North

Location: Koeln / Bonn


UV Index: 3 (Moderate)

Visibility: 10 mi


Pressure: 29.65 "Hg

Humidity: 63%

Dew point: 43 °F

Location of TroisdorfLocation

Historic Weather in Troisdorf

°F

Troisdorf temperature yesterday

Maximum temperature yesterday: 72 °F (at 3:20 PM)
Minimum temperature yesterday: 46 °F (at 5:20 AM)
Average temperature yesterday: 61 °F

Past Weeks' High & Low Weather Summary

 TemperatureHumidityPressure
High72 °F (Apr 7, 3:50 PM)100% (Apr 9, 3:50 AM)30.45 "Hg (Apr 9, 3:50 AM)
Low28 °F (Apr 16, 6:20 AM)26% (Apr 17, 4:20 PM)29.65 "Hg (Apr 20, 4:50 PM)
Average52 °F66%30.06 "Hg
* Reported Apr 6 9:20 AM — Apr 21 9:20 AM, Troisdorf, Weather by CustomWeather, © 2014

Note: Actual official high and low records may vary slightly from our data, if they occured in-between our weather recording intervals... More about our weather records

Advertising

Historic Weather Conditions — Data for Previous 24 hours

 ConditionsComfort  
Time TempWeatherWind HumidityBarometerVisibility
9:20 AM
Apr 21
54 °FSunny.3 mph67%29.65 "Hg10 mi
8:50 AM52 °FSunny.3 mph77%29.68 "Hg10 mi
8:20 AM50 °FSunny.2 mph82%29.68 "Hg10 mi
7:50 AM48 °FSunny.2 mph87%29.68 "Hg10 mi
7:20 AM45 °FClear.2 mph93%29.68 "Hg10 mi
6:50 AM43 °FClear.1 mph93%29.68 "Hg10 mi
6:20 AM45 °FClear.2 mph87%29.65 "Hg10 mi
5:50 AM43 °FClear.5 mph87%29.68 "Hg10 mi
5:20 AM48 °FClear.3 mph76%29.68 "Hg10 mi
4:50 AM48 °FClear.5 mph82%29.68 "Hg10 mi
4:20 AM48 °FClear.6 mph76%29.68 "Hg10 mi
3:50 AM50 °FClear.3 mph76%29.68 "Hg10 mi
3:20 AM52 °FClear.3 mph72%29.71 "Hg10 mi
2:50 AM52 °FClear.7 mph72%29.71 "Hg10 mi
2:20 AM52 °FPassing clouds.7 mph67%29.71 "HgN/A
1:50 AM54 °FClear.7 mph67%29.71 "Hg10 mi
1:20 AM55 °FClear.9 mph63%29.71 "Hg10 mi
12:50 AM57 °FClear.9 mph59%29.71 "Hg10 mi
12:20 AM57 °FClear.10 mph59%29.71 "Hg10 mi
11:50 PM
Apr 20
57 °FClear.10 mph59%29.71 "Hg10 mi
11:20 PM59 °FClear.10 mph55%29.71 "Hg10 mi
10:50 PM59 °FClear.10 mph51%29.71 "Hg10 mi
10:20 PM61 °FClear.10 mph45%29.71 "Hg10 mi
9:50 PM63 °FClear.9 mph39%29.71 "Hg10 mi
9:20 PM61 °FSunny.9 mph45%29.68 "Hg10 mi
8:50 PM63 °FSunny.6 mph39%29.68 "Hg10 mi
8:20 PM64 °FSunny.6 mph37%29.68 "Hg10 mi
7:50 PM66 °FSunny.6 mph35%29.68 "Hg10 mi
7:20 PM68 °FSunny.12 mph33%29.65 "Hg10 mi
6:50 PM68 °FSunny.10 mph30%29.65 "Hg10 mi
6:20 PM70 °FSunny.15 mph29%29.65 "Hg10 mi
5:50 PM70 °FSunny.13 mph29%29.65 "Hg10 mi
5:20 PM72 °FSunny.14 mph29%29.65 "Hg10 mi
4:50 PM70 °FSunny.14 mph31%29.65 "Hg10 mi
4:20 PM70 °FPassing clouds.8 mph29%29.68 "HgN/A
3:50 PM70 °FSunny.9 mph31%29.68 "Hg10 mi
3:20 PM72 °FSunny.10 mph31%29.68 "Hg10 mi
2:50 PM70 °FPassing clouds.9 mph38%29.68 "HgN/A
2:20 PM66 °FSunny.14 mph40%29.68 "Hg10 mi
1:50 PM70 °FSunny.10 mph38%29.68 "Hg10 mi
1:20 PM68 °FSunny.15 mph40%29.71 "Hg10 mi
12:50 PM68 °FSunny.17 mph38%29.71 "Hg10 mi
12:20 PM66 °FSunny.12 mph43%29.71 "Hg10 mi
11:50 AM66 °FSunny.12 mph43%29.71 "Hg10 mi
11:20 AM66 °FSunny.15 mph43%29.71 "Hg10 mi
10:50 AM66 °FSunny.15 mph46%29.71 "Hg10 mi
10:20 AM64 °FSunny.13 mph49%29.74 "Hg10 mi
Weather by CustomWeather, © 2014

See weather overview